Weather History for KHBI - May, 2014

Change the Weather History Date:

Wednesday, May 21, 2014

  Actual Average Record
Temperature  
Mean Temperature 72 °F -  
Max Temperature 84 °F 79 °F 95 °F (1941)
Min Temperature 59 °F 58 °F 41 °F (1954)
Cooling Degree Days 6    
Growing Degree Days 22 (Base 50)    
Moisture  
Dew Point 59 °F    
Average Humidity 65    
Maximum Humidity 94    
Minimum Humidity 38    
Precipitation  
Precipitation 0.00 in - - ()
Sea Level Pressure  
Sea Level Pressure 30.07 in    
Wind  
Wind Speed 6 mph (SSW)    
Max Wind Speed 12 mph    
Max Gust Speed 17 mph    
Visibility 10 miles    
Events      
Averages and records for this station are not official NWS values.
T = Trace of Precipitation, MM = Missing Value Source: NWS Daily Summary

Daily Weather History Graph

Daily Weather History Graph

Search for Another Location

Airport or City:

Trip Planner

Search our weather history database for the weather conditions in past years. The results will help you decide how hot, cold, wet, or windy it might be!

Date:

Astronomy

May. 21, 2014 Rise Set
Actual Time 6:10 AM EDT 8:22 PM EDT
Civil Twilight 5:41 AM EDT 8:51 PM EDT
Nautical Twilight 5:06 AM EDT 9:26 PM EDT
Astronomical Twilight 4:28 AM EDT 10:04 PM EDT
Moon 1:36 AM EDT (5/21) 1:16 PM EDT (5/21)
Length of Visible Light 15h 09m
Length of Day
14h 12m
Waning Gibbous, 49% of the Moon is Illuminated
May 21
Waning Gibbous
May 28
New
Jun 5
First Quarter
Jun 13
Full
Jun 19
Last Quarter

Hourly Weather History & Observations

Time (EDT) Temp. Heat Index Dew Point Humidity Pressure Visibility Wind Dir Wind Speed Gust Speed Precip Events Conditions
12:15 AM 68.0 °F - 58.8 °F 72% 30.14 in 10.0 mi South 4.6 mph - N/A   Clear
12:35 AM 68.2 °F - 59.0 °F 72% 30.14 in 7.0 mi SSW 5.8 mph - N/A   Clear
12:55 AM 68.4 °F - 59.0 °F 72% 30.14 in 10.0 mi SSW 5.8 mph - N/A   Clear
1:15 AM 68.2 °F - 59.2 °F 73% 30.14 in 10.0 mi SSW 8.1 mph - N/A   Clear
1:35 AM 68.0 °F - 59.2 °F 73% 30.13 in 10.0 mi SSW 9.2 mph - N/A   Clear
1:55 AM 67.6 °F - 59.0 °F 74% 30.12 in 10.0 mi SSW 11.5 mph - N/A   Clear
2:15 AM 66.9 °F - 58.1 °F 73% 30.12 in 10.0 mi SSW 9.2 mph - N/A   Clear
2:35 AM 66.4 °F - 57.4 °F 73% 30.12 in 10.0 mi SSW 10.4 mph - N/A   Clear
2:55 AM 65.5 °F - 57.2 °F 75% 30.12 in 10.0 mi SSW 9.2 mph - N/A   Clear
3:15 AM 64.8 °F - 57.2 °F 76% 30.12 in 10.0 mi SSW 10.4 mph - N/A   Clear
3:35 AM 64.2 °F - 57.2 °F 78% 30.12 in 10.0 mi SSW 10.4 mph - N/A   Clear
3:55 AM 63.7 °F - 57.4 °F 80% 30.12 in 10.0 mi SSW 11.5 mph - N/A   Clear
4:15 AM 63.5 °F - 57.4 °F 80% 30.12 in 10.0 mi SSW 8.1 mph - N/A   Scattered Clouds
4:35 AM 63.1 °F - 57.6 °F 82% 30.11 in 10.0 mi SSW 6.9 mph - N/A   Clear
4:55 AM 62.8 °F - 57.7 °F 84% 30.11 in 10.0 mi SSW 6.9 mph - N/A   Clear
5:15 AM 62.6 °F - 57.7 °F 84% 30.11 in 10.0 mi South 4.6 mph - N/A   Clear
5:35 AM 61.9 °F - 57.7 °F 86% 30.11 in 10.0 mi Calm Calm - N/A   Clear
5:55 AM 61.7 °F - 58.1 °F 88% 30.12 in 10.0 mi Calm Calm - N/A   Clear
6:15 AM 59.9 °F - 58.1 °F 94% 30.12 in 10.0 mi Calm Calm - N/A   Clear
6:35 AM 61.2 °F - 58.3 °F 90% 30.12 in 10.0 mi South 3.5 mph - N/A   Clear
6:55 AM 61.5 °F - 58.6 °F 90% 30.12 in 10.0 mi Calm Calm - N/A   Clear
7:15 AM 62.2 °F - 59.0 °F 89% 30.12 in 10.0 mi SSW 4.6 mph - N/A   Clear
7:35 AM 63.3 °F - 59.5 °F 87% 30.12 in 10.0 mi SSW 5.8 mph - N/A   Clear
8:15 AM 64.6 °F - 59.9 °F 85% 30.13 in 10.0 mi SSW 5.8 mph - N/A   Clear
8:35 AM 65.3 °F - 60.3 °F 84% 30.14 in 10.0 mi SSW 5.8 mph - N/A   Clear
8:55 AM 66.2 °F - 60.8 °F 83% 30.14 in 10.0 mi SSW 5.8 mph - N/A   Clear
9:15 AM 67.6 °F - 61.2 °F 80% 30.14 in 10.0 mi SSW 5.8 mph - N/A   Clear
9:35 AM 68.9 °F - 61.5 °F 77% 30.14 in 10.0 mi South 3.5 mph - N/A   Clear
9:55 AM 70.5 °F - 62.4 °F 75% 30.13 in 10.0 mi SSW 6.9 mph - N/A   Clear
10:15 AM 72.5 °F - 63.0 °F 72% 30.12 in 10.0 mi SSW 6.9 mph - N/A   Clear
10:35 AM 73.6 °F - 62.1 °F 67% 30.12 in 10.0 mi SW 4.6 mph - N/A   Clear
10:55 AM 75.9 °F - 61.9 °F 62% 30.12 in 10.0 mi SSW 8.1 mph - N/A   Clear
11:15 AM 77.2 °F - 61.7 °F 59% 30.11 in 10.0 mi SW 8.1 mph - N/A   Clear
11:35 AM 78.3 °F - 60.8 °F 55% 30.11 in 10.0 mi SSW 6.9 mph - N/A   Clear
11:55 AM 79.2 °F - 59.0 °F 50% 30.10 in 10.0 mi WSW 5.8 mph - N/A   Clear
12:15 PM 80.1 °F 80.7 °F 58.5 °F 48% 30.09 in 10.0 mi SW 9.2 mph - N/A   Clear
12:35 PM 80.4 °F 80.7 °F 57.0 °F 45% 30.09 in 10.0 mi WSW 5.8 mph - N/A   Clear
12:55 PM 80.6 °F 80.6 °F 56.5 °F 43% 30.09 in 10.0 mi WSW 8.1 mph - N/A   Clear
1:15 PM 81.5 °F 81.4 °F 57.0 °F 43% 30.09 in 10.0 mi WSW 9.2 mph - N/A   Clear
1:35 PM 83.1 °F 82.2 °F 55.4 °F 38% 30.08 in 10.0 mi SW 11.5 mph 17.3 mph N/A   Clear
2:15 PM 82.4 °F 81.9 °F 56.5 °F 41% 30.07 in 10.0 mi West 10.4 mph - N/A   Clear
2:35 PM 83.3 °F 82.3 °F 55.4 °F 38% 30.05 in 10.0 mi West 10.4 mph 16.1 mph N/A   Clear
2:55 PM 83.7 °F 83.0 °F 56.7 °F 40% 30.05 in 10.0 mi SW 8.1 mph - N/A   Scattered Clouds
3:35 PM 83.5 °F 82.6 °F 56.3 °F 39% 30.04 in 10.0 mi SW 3.5 mph - N/A   Clear
3:55 PM 83.7 °F 83.1 °F 57.7 °F 41% 30.03 in 10.0 mi SW 6.9 mph - N/A   Scattered Clouds
4:15 PM 83.5 °F 83.1 °F 58.1 °F 42% 30.02 in 10.0 mi SW 10.4 mph 16.1 mph N/A   Scattered Clouds
4:35 PM 83.3 °F 82.6 °F 56.8 °F 40% 30.03 in 10.0 mi SW 10.4 mph - N/A   Scattered Clouds
4:55 PM 84.0 °F 83.2 °F 56.7 °F 39% 30.03 in 10.0 mi SW 10.4 mph - N/A   Scattered Clouds
5:15 PM 83.5 °F 82.6 °F 56.3 °F 39% 30.02 in 10.0 mi SW 8.1 mph - N/A   Scattered Clouds
5:35 PM 83.8 °F 83.1 °F 57.0 °F 40% 30.01 in 10.0 mi SSW 9.2 mph - N/A   Clear
5:55 PM 83.5 °F 82.9 °F 57.4 °F 41% 30.01 in 10.0 mi SSW 8.1 mph - N/A   Clear
6:15 PM 82.8 °F 82.7 °F 59.0 °F 44% 30.01 in 10.0 mi SW 5.8 mph - N/A   Scattered Clouds
6:35 PM 83.1 °F 83.0 °F 59.4 °F 44% 30.00 in 10.0 mi SSW 5.8 mph - N/A   Scattered Clouds
6:55 PM 81.5 °F 82.4 °F 61.7 °F 51% 30.00 in 10.0 mi South 4.6 mph - N/A   Scattered Clouds
7:15 PM 81.5 °F 82.2 °F 61.3 °F 50% 30.00 in 10.0 mi South 3.5 mph - N/A   Scattered Clouds
7:35 PM 80.1 °F 81.2 °F 62.2 °F 54% 30.00 in 10.0 mi SSW 3.5 mph - N/A   Scattered Clouds
7:55 PM 78.8 °F - 63.0 °F 58% 30.00 in 10.0 mi Calm Calm - N/A   Clear
8:15 PM 77.0 °F - 63.7 °F 63% 30.01 in 10.0 mi Calm Calm - N/A   Clear
8:35 PM 75.7 °F - 63.3 °F 65% 30.01 in 10.0 mi Calm Calm - N/A   Clear
8:55 PM 74.3 °F - 63.0 °F 68% 30.00 in 10.0 mi Calm Calm - N/A   Clear
9:15 PM 74.3 °F - 62.6 °F 67% 30.00 in 10.0 mi Calm Calm - N/A   Clear
9:35 PM 73.4 °F - 62.6 °F 69% 30.00 in 10.0 mi Calm Calm - N/A   Clear
9:55 PM 72.0 °F - 62.6 °F 72% 30.00 in 10.0 mi Calm Calm - N/A   Clear
10:15 PM 72.1 °F - 62.6 °F 72% 30.00 in 10.0 mi Calm Calm - N/A   Clear
10:35 PM 72.1 °F - 62.1 °F 70% 30.00 in 10.0 mi Calm Calm - N/A   Clear
10:55 PM 73.9 °F - 62.2 °F 67% 30.00 in 10.0 mi Calm Calm - N/A   Clear
11:15 PM 73.9 °F - 62.2 °F 67% 30.00 in 10.0 mi South 3.5 mph - N/A   Clear
11:35 PM 72.7 °F - 62.4 °F 70% 30.00 in 10.0 mi SSW 3.5 mph - N/A   Clear
11:55 PM 72.7 °F - 62.6 °F 71% 30.00 in 10.0 mi South 4.6 mph - N/A   Clear